Weather History for KHGR - September, 2012

Change the Weather History Date:

Wednesday, September 12, 2012

  Actual Average Record
Temperature  
Mean Temperature 66 °F -  
Max Temperature 79 °F 75 °F 93 °F (1998)
Min Temperature 52 °F 57 °F 52 °F (1999)
Cooling Degree Days 1    
Month to date cooling degree days 104  
Year to date cooling degree days 1240  
Growing Degree Days 16 (Base 50)    
Moisture  
Dew Point 50 °F    
Average Humidity 60    
Maximum Humidity 83    
Minimum Humidity 37    
Precipitation  
Precipitation 0.00 in - - ()
Month to date precipitation 0.55  
Year to date precipitation 24.39  
Sea Level Pressure  
Sea Level Pressure 30.35 in    
Wind  
Wind Speed 3 mph (SE)    
Max Wind Speed 12 mph    
Max Gust Speed 15 mph    
Visibility 10 miles    
Events      
Averages and records for this station are not official NWS values.
T = Trace of Precipitation, MM = Missing Value Source: NWS Daily Summary

Daily Weather History Graph

Daily Weather History Graph

Search for Another Location

Airport or City:

Trip Planner

Search our weather history database for the weather conditions in past years. The results will help you decide how hot, cold, wet, or windy it might be!

Date:

Astronomy

Sep. 12, 2012 Rise Set
Actual Time 6:49 AM EDT 7:23 PM EDT
Civil Twilight 6:22 AM EDT 7:50 PM EDT
Nautical Twilight 5:50 AM EDT 8:22 PM EDT
Astronomical Twilight 5:17 AM EDT 8:55 PM EDT
Moon 3:05 AM EDT (9/12) 5:09 PM EDT (9/12)
Length of Visible Light 13h 28m
Length of Day
12h 34m
Waning Crescent, 14% of the Moon is Illuminated
Sep 12
Waning Crescent
Sep 15
New
Sep 22
First Quarter
Sep 29
Full
Oct 8
Last Quarter

Hourly Weather History & Observations

Time (EDT) Temp. Dew Point Humidity Pressure Visibility Wind Dir Wind Speed Gust Speed Precip Events Conditions
12:53 AM 59.0 °F 46.0 °F 62% 30.33 in 10.0 mi Calm Calm - N/A   Clear
1:53 AM 57.0 °F 46.0 °F 67% 30.33 in 10.0 mi East 3.5 mph - N/A   Clear
2:53 AM 55.9 °F 46.0 °F 69% 30.33 in 10.0 mi East 3.5 mph - N/A   Clear
3:53 AM 55.0 °F 46.0 °F 72% 30.33 in 10.0 mi East 3.5 mph - N/A   Clear
4:53 AM 53.1 °F 48.0 °F 83% 30.34 in 10.0 mi Calm Calm - N/A   Clear
5:53 AM 53.1 °F 46.9 °F 80% 30.35 in 10.0 mi Calm Calm - N/A   Clear
6:53 AM 53.1 °F 46.0 °F 77% 30.37 in 10.0 mi Calm Calm - N/A   Clear
7:53 AM 55.0 °F 48.0 °F 77% 30.38 in 10.0 mi Calm Calm - N/A   Clear
8:53 AM 57.9 °F 51.1 °F 78% 30.39 in 10.0 mi Calm Calm - N/A   Clear
9:53 AM 63.0 °F 52.0 °F 67% 30.40 in 10.0 mi Calm Calm - N/A   Clear
10:53 AM 66.0 °F 53.1 °F 63% 30.40 in 10.0 mi South 3.5 mph - N/A   Clear
11:53 AM 71.1 °F 52.0 °F 51% 30.39 in 10.0 mi SW 4.6 mph - N/A   Clear
12:53 PM 73.0 °F 53.1 °F 49% 30.38 in 10.0 mi South 3.5 mph - N/A   Clear
1:53 PM 75.0 °F 52.0 °F 44% 30.36 in 10.0 mi SE 6.9 mph - N/A   Clear
2:53 PM 77.0 °F 51.1 °F 40% 30.34 in 10.0 mi SE 4.6 mph - N/A   Clear
3:53 PM 78.1 °F 52.0 °F 40% 30.33 in 10.0 mi South 10.4 mph - N/A   Clear
4:53 PM 78.1 °F 50.0 °F 37% 30.32 in 10.0 mi Calm Calm - N/A   Clear
5:53 PM 77.0 °F 52.0 °F 42% 30.33 in 10.0 mi SSE 8.1 mph - N/A   Clear
6:53 PM 75.9 °F 51.1 °F 42% 30.33 in 10.0 mi SSE 4.6 mph - N/A   Clear
7:53 PM 73.0 °F 52.0 °F 48% 30.34 in 10.0 mi SSE 4.6 mph - N/A   Clear
9:53 PM 66.9 °F 54.0 °F 63% 30.36 in 10.0 mi ESE 4.6 mph - N/A   Clear
10:53 PM 64.9 °F 53.1 °F 65% 30.36 in 10.0 mi ESE 6.9 mph - N/A   Clear
11:53 PM 64.0 °F 53.1 °F 67% 30.37 in 10.0 mi Calm Calm - N/A   Clear